This demonstration page uses our WeatherBlox Daily Observations layout. Learn more.

Left ArrowRight Arrow

38.20091, -84.87328

Hourly Observations for June 26, 2021

Temp ( °F °C ) Dew Point ( °F °C ) Humidity (%) Winds ( mph kmh ) Pressure ( in mb ) Visibility ( mi km ) Precip ( " mm )
12:53 am 00:53 Clear 74 23.3 68 20 82 82 S 5 7 30.04 1017 10 16 0.00 0.00
1:53 am 01:53 Clear 73 22.8 67 19.4 81 81 S 5 7 30.04 1017 10 16 0.00 0.00
2:53 am 02:53 Clear 72 22.2 67 19.4 84 84 S 5 7 30.04 1017 10 16 0.00 0.00
3:53 am 03:53 Clear 71 21.7 67 19.4 87 87 S 5 7 30.04 1017 10 16 0.00 0.00
4:53 am 04:53 Clear 70 21.1 66 18.9 87 87 Calm 30.05 1018 10 16 0.00 0.00
5:53 am 05:53 Clear 70 21.1 66 18.9 87 87 SSE 6 9 30.05 1018 10 16 0.00 0.00
6:53 am 06:53 Sunny 71 21.7 66 18.9 84 84 SSE 7 11 30.06 1018 10 16 0.00 0.00
7:53 am 07:53 Sunny 73 22.8 66 18.9 79 79 S 10 17 30.06 1018 10 16 0.00 0.00
8:53 am 08:53 Mostly Sunny 75 23.9 66 18.9 74 74 S 14 22 30.08 1019 10 16 0.00 0.00
9:53 am 09:53 Sunny 78 25.6 66 18.9 67 67 S 18 30 30.08 1019 10 16 0.00 0.00
10:53 am 10:53 Sunny 81 27.2 66 18.9 61 61 SSW 14 22 30.08 1019 10 16 0.00 0.00
11:53 am 11:53 Mostly Sunny 83 28.3 67 19.4 59 59 SSW 14 22 30.08 1019 10 16 0.00 0.00
12:53 pm 12:53 Partly Cloudy 84 28.9 67 19.4 57 57 SSW 15 24 30.08 1019 10 16 0.00 0.00
1:53 pm 13:53 Partly Cloudy 86 30 68 20 55 55 SSW 16 26 30.08 1019 10 16 0.00 0.00
2:53 pm 14:53 Partly Cloudy 85 29.4 67 19.4 55 55 SW 14 22 30.06 1018 10 16 0.00 0.00
3:53 pm 15:53 Sunny 86 30 66 18.9 51 51 SSW 16 26 30.05 1018 10 16 0.00 0.00
5:53 pm 17:53 Sunny 86 30 66 18.9 51 51 SSW 14 22 30.02 1017 10 16 0.00 0.00
6:53 pm 18:53 Sunny 85 29.4 66 18.9 53 53 SSW 13 20 30.01 1016 10 16 0.00 0.00
7:53 pm 19:53 Sunny 84 28.9 65 18.3 53 53 S 14 22 30.01 1016 10 16 0.00 0.00
8:53 pm 20:53 Sunny 81 27.2 65 18.3 58 58 S 6 9 30.00 1016 10 16 0.00 0.00
9:53 pm 21:53 Clear 80 26.7 65 18.3 60 60 S 7 11 30.01 1016 10 16 0.00 0.00
10:53 pm 22:53 Clear 78 25.6 65 18.3 64 64 S 9 15 30.03 1017 10 16 0.00 0.00
11:53 pm 23:53 Clear 77 25 65 18.3 66 66 S 7 11 30.04 1017 10 16 0.00 0.00

Powered by AerisWeather